Regional Weather Roundup
Issued by NWS

Home | Current Version | Previous Version | Graphics & Text | Print | Product List | Glossary On
Versions: 1 2 3 4 5 6 7 8 9 10 11 12 13 14 15 16 17 18 19 20 21 22 23 24 25 26 27 28 29 30 31 32 33 34 35 36 37 38 39 40 41 42 43 44 45 46 47 48 49 50
000
ASUS45 KPSR 040600
RWRAZ

ARIZONA HOURLY REGIONAL WEATHER ROUNDUP
NATIONAL WEATHER SERVICE PHOENIX AZ
1100 PM MST MON AUG 03 2015

NOTE: FAIR INDICATES FEW OR NO CLOUDS BELOW 12,000 FEET WITH NO
SIGNIFICANT WEATHER AND/OR OBSTRUCTIONS TO VISIBILITY.

AZZ001>003-036-040700-
NORTHWEST ARIZONA

CITY           SKY/WX    TMP DP  RH WIND       PRES   REMARKS
KINGMAN        CLEAR     80  31  16 S14       29.97F
6HR MIN TEMP:  80; 6HR MAX TEMP:  99;

$$

AZZ004>008-015-016-018-040700-
NORTH CENTRAL ARIZONA

CITY           SKY/WX    TMP DP  RH WIND       PRES   REMARKS
GRAND CANYON   PTCLDY    58  40  51 CALM      30.25R
6HR MIN TEMP:  56; 6HR MAX TEMP:  86;

WILLIAMS       MOCLDY    70  37  30 SW7       30.32F
PRESCOTT       CLEAR     73  44  35 S9        30.12F
6HR MIN TEMP:  73; 6HR MAX TEMP:  90;

FLAGSTAFF      NOT AVBL
PAYSON         CLEAR     73  45  35 CALM      30.15F
PAGE           CLEAR     86  39  19 W6        30.00R
6HR MIN TEMP:  84; 6HR MAX TEMP:  95;

$$

AZZ009>014-017-040700-
NORTHEAST ARIZONA

CITY           SKY/WX    TMP DP  RH WIND       PRES   REMARKS
WINSLOW        NOT AVBL
SAINT JOHNS    PTCLDY    70  49  47 S7        30.15S
6HR MIN TEMP:  69; 6HR MAX TEMP:  88;

$$

AZZ023-040700-
GREATER PHOENIX AREA

CITY           SKY/WX    TMP DP  RH WIND       PRES   REMARKS
PHOENIX        PTCLDY    96  54  24 SW5       29.76S
6HR MIN TEMP:  96; 6HR MAX TEMP: 109;

LUKE AFB       CLEAR     94  55  26 SW5       29.76F
6HR MIN TEMP:  94; 6HR MAX TEMP: 108;

DEER VALLEY    CLEAR     95  48  20 NW3       29.79F
6HR MIN TEMP:  95; 6HR MAX TEMP: 107;

SCOTTSDALE     CLEAR     96  48  19 CALM      29.82S
6HR MIN TEMP:  96; 6HR MAX TEMP: 107;

MESA-GATEWAY   CLEAR     90  48  24 SE3       29.82S
$$

AZZ027-028-040700-
SOUTHWEST MARICOPA COUNTY AND PINAL COUNTY

CITY           SKY/WX    TMP DP  RH WIND       PRES   REMARKS
CASA GRANDE    CLEAR     93  52  24 NW5       29.80F
6HR MIN TEMP:  93; 6HR MAX TEMP: 106;

GILA BEND      FAIR      96  51  22 SW9       29.76S
6HR MIN TEMP:  96; 6HR MAX TEMP: 109;

$$

AZZ503-504-507>509-040700-
SOUTHEAST ARIZONA

CITY           SKY/WX    TMP DP  RH WIND       PRES   REMARKS
TUCSON         CLEAR     88  54  31 S10       29.93R
6HR MIN TEMP:  88; 6HR MAX TEMP: 103;

DAVIS-MONTHAN  CLEAR     86  53  32 S8        29.91S
6HR MIN TEMP:  86; 6HR MAX TEMP: 101;

NOGALES        CLEAR     75  62  64 SE5       30.05S
6HR MIN TEMP:  73; 6HR MAX TEMP:  88;

SIERRA VISTA   PTCLDY    73  58  59 VRB3      30.10S
6HR MIN TEMP:  72; 6HR MAX TEMP:  87;

SAFFORD        CLEAR     85  46  25 NW10      29.92F
6HR MIN TEMP:  85; 6HR MAX TEMP: 102;

$$

AZZ020-021-025-026-031-040700-
SOUTHWEST ARIZONA

CITY           SKY/WX    TMP DP  RH WIND       PRES   REMARKS
YUMA           NOT AVBL
$$

CAZ031-033-041-043-047-048-061-040700-
SOUTHERN CALIFORNIA

CITY           SKY/WX    TMP DP  RH WIND       PRES   REMARKS
DOWNTOWN L.A.  CLEAR     72  60  66 CALM      29.87S
6HR MIN TEMP:  71; 6HR MAX TEMP:  79;

L.A. AIRPORT   PTCLDY    71  64  78 SW6       29.88S
6HR MIN TEMP:  70; 6HR MAX TEMP:  74;

SAN DIEGO      PTCLDY    71  64  78 N3        29.90F
6HR MIN TEMP:  71; 6HR MAX TEMP:  76;

BURBANK        CLEAR     74  60  61 SE3       29.88F
6HR MIN TEMP:  74; 6HR MAX TEMP:  86;

ONTARIO        PTCLDY    74  59  59 W8        29.90S
6HR MIN TEMP:  74; 6HR MAX TEMP:  92;

RIVERSIDE      PTCLDY    73  62  68 W3        29.90F
6HR MIN TEMP:  73; 6HR MAX TEMP:  91;

PALM SPRINGS   CLEAR     94  50  22 NW8       29.76R
6HR MIN TEMP:  94; 6HR MAX TEMP: 109;

EL CENTRO NAS  PTCLDY    91  43  18 SW8       29.72S
6HR MIN TEMP:  91; 6HR MAX TEMP: 112;

IMPERIAL       CLEAR     93  50  23 S3        29.70S
6HR MIN TEMP:  90; 6HR MAX TEMP: 112;

BLYTHE         CLEAR     97  43  15 SW13      29.73R
6HR MIN TEMP:  97; 6HR MAX TEMP: 111;

$$

NVZ020-UTZ003-040700-
SOUTHERN NEVADA-UTAH

CITY           SKY/WX    TMP DP  RH WIND       PRES   REMARKS
LAS VEGAS      NOT AVBL
SALT LAKE CITY PTCLDY    64  56  75 E10       30.07R
6HR MIN TEMP:  64; 6HR MAX TEMP:  70;

$$

NMZ009-TXZ055-040700-
NEW MEXICO-WEST TEXAS

CITY           SKY/WX    TMP DP  RH WIND       PRES   REMARKS
ALBUQUERQUE    PTCLDY    78  46  32 NE7       30.12F
6HR MIN TEMP:  78; 6HR MAX TEMP:  89;

EL PASO        MOCLDY    78  59  51 S7        30.07R
6HR MIN TEMP:  78; 6HR MAX TEMP:  94;

$$


........................KEY........................
SKY/WX - SKY CONDITION/WEATHER
TMP    - TEMPERATURE IN FAHRENHEIT
DP     - DEW POINT IN FAHRENHEIT
RH     - RELATIVE HUMIDITY IN PERCENT
WIND   - DIRECTION AND SPEED IN MILES PER HOUR (MPH)
VRB    - VARIABLE WIND DIRECTION
PRES   - MEAN SEA LEVEL PRESSURE IN INCHES OF MERCURY
         F - FALLING PRESSURE   R - RISING PRESSURE
         S - STEADY PRESSURE
VSB    - VISIBILITY IN MILES
HX     - HEAT INDEX IN FAHRENHEIT
WCI    - WIND CHILL INDEX IN FAHRENHEIT
TC     - TEMPERATURE IN CELSIUS WHICH IS ALSO KNOWN AS
         TEMPERATURE IN CENTIGRADE
AFB    - AIR FORCE BASE
         LUKE AFB IS LUKE AIR FORCE BASE
         DAVIS-MONTHAN IS DAVIS-MONTHAN AIR FORCE BASE
NAS    - NAVAL AIR STATION
         EL CENTRO NAS IS EL CENTRO NAVAL AIR STATION
N/A    - NOT AVAILABLE




USA.gov is the U.S. government's official web portal to all federal, state and local government web resources and services.